Regional Weather Roundup
Issued by NWS State College, PA

Home | Current Version | Previous Version | Graphics & Text | Print | Product List | Glossary Off
Versions: 1 2 3 4 5 6 7 8 9 10 11 12 13 14 15 16 17 18 19 20 21 22 23 24 25 26 27 28 29 30 31 32 33 34 35 36 37 38 39 40 41 42 43 44 45 46 47 48 49 50

000
ASUS41 KCTP 200103
RWRCTP

REGIONAL WEATHER ROUNDUP
NATIONAL WEATHER SERVICE STATE COLLEGE PA
900 PM EDT SAT AUG 19 2017

Note: "fair" indicates few or no clouds below 12,000 feet with no
significant weather and/or obstructions to visibility.

* = STATION THAT DOES NOT REPORT PRECIPITATION /E.G. RAIN...SNOW...ETC/
    THUNDER OR FOG.

PAZ002>004-007>009-013>016-020>023-029>032-200200-
WESTERN PENNSYLVANIA

CITY           SKY/WX    TMP DP  RH WIND       PRES   REMARKS
ERIE           CLEAR     71  59  65 W8        29.96R
MEADVILLE      CLEAR     65  59  81 W3        30.00R
FRANKLIN*      CLEAR     64  55  72 W6        30.00R
NEW CASTLE     FAIR      66  64  93 CALM      29.99R
BEAVER COUNTY  NOT AVBL
BUTLER*        CLEAR     63  63 100 CALM      30.00R
PITTSBURGH INT PTCLDY    66  65  96 VRB3      29.99R
PITTSBURGH     CLEAR     64  60  87 S6        29.99R
INDIANA*       CLEAR     63  63 100 CALM      30.02R
LATROBE        CLEAR     63  63 100 CALM      29.99S
WASHINGTON CO* CLEAR     64  61  88 SW3       30.00R
$$

PAZ004>006-010>012-017>019-024>028-033>037-041-042-045-046-049>053-200200-
CENTRAL PENNSYLVANIA

CITY           SKY/WX    TMP DP  RH WIND       PRES   REMARKS
BRADFORD       PTCLDY    63  60  90 NW7       29.99R
DUBOIS         PTCLDY    60  57  89 SW7       29.99R
CLEARFIELD     PTCLDY    61  60  97 S6        29.98R
JOHNSTOWN      CLEAR     61  57  87 SW8       30.02R
ALTOONA        PTCLDY    63  60  90 SW6       29.99S
STATE COLLEGE  CLEAR     61  59  94 CALM      29.97R
WILLIAMSPORT   CLOUDY    69  65  86 W9        29.89R
SELINSGROVE    CLOUDY    65  64  97 CALM      29.92F
FT INDIANTOWN  LGT RAIN  66  63  90 NW3       29.91F
CAPITAL CITY   CLOUDY    67  61  81 SW3       29.92F
HARRISBURG     CLOUDY    68  64  87 E3        29.91F
YORK           CLOUDY    70  60  70 CALM      29.94F
$$

PAZ038>040-043-044-047-048-054-055-060>062-067>071-200200-
EASTERN PENNSYLVANIA

CITY           SKY/WX    TMP DP  RH WIND       PRES   REMARKS
SCRANTON       MOCLDY    76  64  66 NW18G28   29.93R
MOUNT POCONO     N/A     69  65  86 W7        29.95R
ALLENTOWN      CLEAR     75  65  70 SW8       29.89R
QUAKERTOWN*    CLEAR     73  68  83 CALM      29.91R
READING        RAIN      67  65  93 SW9G24    29.95R FOG
LANCASTER      LGT RAIN  68  64  87 W10       29.94R
COATESVILLE    CLEAR     77  68  73 VRB3      29.94R
POTTSTOWN      CLEAR     75  68  78 W5        29.92R
BLUE BELL      CLEAR     72  68  88 CALM      29.90S
DOYLESTOWN     CLEAR     74  66  76 CALM      29.89R
WILLOW GROVE   NOT AVBL
NORTH PHILA    CLEAR     81  66  60 SW6       29.89S
PHILADELPHIA   PTCLDY    82  67  60 SW8       29.89R
$$



USA.gov is the U.S. government's official web portal to all federal, state and local government web resources and services.